This is the latest recevied weather packets stored in our database for station/object W3TMB. If no packets are shown the sender has not sent any weather packets the latest 10 day(s).
| Time | Temp. | Humidity | Pressure | Rain* | Wind** | Luminosity | Snow |
|---|---|---|---|---|---|---|---|
| 1778011551 | 25.56° C | 43% | 1003.7 hPa | 0 mm | - | 100 W/m² | - |
| 1778011248 | 25.56° C | 42% | 1003.2 hPa | 0 mm | - | 176 W/m² | - |
| 1778010944 | 25.56° C | 42% | 1003.4 hPa | 0 mm | - | 189 W/m² | - |
| 1778010642 | 25.56° C | 43% | 1003.3 hPa | 0 mm | - | 218 W/m² | - |
| 1778010339 | 25.56° C | 43% | 1003.6 hPa | 0 mm | - | 147 W/m² | - |
| 1778010034 | 25.56° C | 42% | 1003.5 hPa | 0 mm | - | 112 W/m² | - |
| 1778009732 | 26.11° C | 40% | 1003.4 hPa | 0 mm | - | 110 W/m² | - |
| 1778009429 | 26.11° C | 41% | 1003.5 hPa | 0 mm | - | 107 W/m² | - |
| 1778009127 | 26.11° C | 40% | 1003.5 hPa | 0 mm | - | 136 W/m² | - |
| 1778008825 | 26.11° C | 40% | 1003.5 hPa | 0 mm | - | 113 W/m² | - |
| 1778008523 | 26.11° C | 40% | 1003.5 hPa | 0 mm | - | 116 W/m² | - |
| 1778008220 | 26.67° C | 39% | 1003.4 hPa | 0 mm | - | 133 W/m² | - |
| 1778007915 | 27.22° C | 40% | 1003.4 hPa | 0 mm | - | 217 W/m² | - |
| 1778007611 | 27.22° C | 38% | 1003.4 hPa | 0 mm | - | 217 W/m² | - |
| 1778007308 | 27.22° C | 39% | 1003.2 hPa | 0 mm | - | 218 W/m² | - |
| 1778007004 | 28.33° C | 38% | 1003.3 hPa | 0 mm | - | 233 W/m² | - |
| 1778006701 | 28.33° C | 37% | 1002.9 hPa | 0 mm | - | 298 W/m² | - |
| 1778006398 | 28.89° C | 37% | 1003.3 hPa | 0 mm | - | 497 W/m² | - |
| 1778006095 | 27.78° C | 38% | 1003.3 hPa | 0 mm | - | 815 W/m² | - |
| 1778005791 | 27.22° C | 42% | 1003.3 hPa | 0 mm | - | 432 W/m² | - |
| 1778005488 | 26.67° C | 41% | 1003.4 hPa | 0 mm | - | 329 W/m² | - |
| 1778005185 | 27.78° C | 39% | 1003.5 hPa | 0 mm | - | 251 W/m² | - |
| 1778004882 | 28.33° C | 39% | 1003.8 hPa | 0 mm | - | 358 W/m² | - |
| 1778004579 | 27.78° C | 41% | 1003.9 hPa | 0 mm | - | 832 W/m² | - |
| 1778004275 | 27.22° C | 39% | 1003.9 hPa | 0 mm | - | 853 W/m² | - |
* Rain latest hour (hover to see other rain measurements)
** Current wind speed in m/s (hover to see current wind gust speed)